| time (UTC) | temp C | wind direction | speed KPH | gust KPH | rain 1hr cm | rain 24hr cm | rain mn cm | humidity % | barometer mb |
| 20260902025003 | 23 | 12 | 0.0 | 0.0 | 0.00 | 0.00 | 0.00 | 87 | 1020.3 |
| 20260902024003 | 23 | 12 | 0.0 | 0.0 | 0.00 | 0.00 | 0.00 | 87 | 1020.3 |
| 20260902023003 | 23 | 12 | 0.0 | 0.0 | 0.00 | 0.00 | 0.00 | 87 | 1020.2 |
| 20260902022003 | 24 | 12 | 0.0 | 0.0 | 0.00 | 0.00 | 0.00 | 87 | 1020.1 |
| 20260902021003 | 24 | 12 | 0.0 | 0.0 | 0.00 | 0.00 | 0.00 | 86 | 1019.9 |
| 20260902020002 | 24 | 12 | 0.0 | 0.0 | 0.00 | 0.00 | 0.00 | 86 | 1019.9 |
| 20260901205003 | 32 | 5 | 4.8 | 9.7 | 0.00 | 0.10 | 0.00 | 57 | 1019.5 |
| 20260901204003 | 32 | 5 | 1.6 | 4.8 | 0.00 | 0.10 | 0.00 | 57 | 1019.7 |
| 20260901203003 | 31 | 5 | 6.4 | 9.7 | 0.00 | 0.10 | 0.00 | 59 | 1020.0 |
| 20260901202003 | 31 | 5 | 3.2 | 8.0 | 0.00 | 0.10 | 0.00 | 57 | 1020.1 |
| 20260901201003 | 31 | 5 | 3.2 | 4.8 | 0.00 | 0.10 | 0.00 | 61 | 1020.2 |
| 20260901200003 | 31 | 5 | 4.8 | 9.7 | 0.00 | 0.10 | 0.00 | 55 | 1020.1 |
| 20260901124003 | 20 | 280 | 0.0 | 0.0 | 0.00 | 0.10 | 0.00 | 91 | 1022.5 |
| 20260901123003 | 20 | 280 | 0.0 | 0.0 | 0.00 | 0.10 | 0.00 | 91 | 1022.5 |
| 20260901122003 | 19 | 280 | 0.0 | 0.0 | 0.00 | 0.10 | 0.00 | 91 | 1022.4 |
| 20260901121003 | 19 | 280 | 0.0 | 0.0 | 0.00 | 0.10 | 0.00 | 91 | 1022.4 |
| 20260901120003 | 19 | 280 | 0.0 | 0.0 | 0.00 | 0.10 | 0.00 | 91 | 1022.3 |
| 20260901115003 | 19 | 280 | 0.0 | 0.0 | 0.00 | 0.10 | 0.00 | 90 | 1022.1 |
| 20260901114003 | 19 | 280 | 0.0 | 0.0 | 0.00 | 0.10 | 0.00 | 90 | 1022.0 |
| 20260901113003 | 19 | 280 | 0.0 | 0.0 | 0.00 | 0.10 | 0.00 | 90 | 1021.9 |
| 20260901112003 | 18 | 280 | 0.0 | 0.0 | 0.00 | 0.10 | 0.00 | 90 | 1021.7 |
| 20260901111004 | 19 | 280 | 0.0 | 0.0 | 0.00 | 0.10 | 0.00 | 90 | 1021.6 |
| 20260901110004 | 19 | 280 | 0.0 | 0.0 | 0.00 | 0.10 | 0.00 | 90 | 1021.6 |
| 20260901105003 | 19 | 280 | 0.0 | 0.0 | 0.00 | 0.10 | 0.00 | 90 | 1021.5 |
| 20260901104003 | 19 | 280 | 0.0 | 0.0 | 0.00 | 0.10 | 0.00 | 90 | 1021.4 |
| 20260901072004 | 20 | 280 | 0.0 | 0.0 | 0.00 | 0.10 | 0.00 | 91 | 1021.1 |
| 20260901071003 | 20 | 280 | 0.0 | 0.0 | 0.00 | 0.10 | 0.00 | 91 | 1021.2 |
| 20260901070003 | 20 | 280 | 0.0 | 0.0 | 0.00 | 0.10 | 0.00 | 91 | 1021.3 |
| 20260901065003 | 20 | 280 | 0.0 | 0.0 | 0.00 | 0.10 | 0.00 | 91 | 1021.3 |
| 20260901064003 | 20 | 280 | 0.0 | 0.0 | 0.00 | 0.10 | 0.00 | 91 | 1021.3 |
| 20260901063003 | 20 | 280 | 0.0 | 0.0 | 0.00 | 0.10 | 0.00 | 91 | 1021.3 |
| 20260901062003 | 20 | 280 | 0.0 | 0.0 | 0.00 | 0.10 | 0.00 | 91 | 1021.5 |
| 20260901061003 | 20 | 280 | 0.0 | 0.0 | 0.00 | 0.10 | 0.00 | 91 | 1021.6 |